Regional Weather Roundup
Issued by NWS

Home | Current Version | Previous Version | Text Only | Print | Product List | Glossary Off
Versions: 1 2 3 4 5 6 7 8 9 10 11 12 13 14 15 16 17 18 19 20 21 22 23 24 25 26 27 28 29 30 31 32 33 34 35 36 37 38 39 40 41 42 43 44 45 46 47 48 49 50

100
ASUS43 KIND 030309
RWRIN

WEATHER ROUNDUP FOR INDIANA
NATIONAL WEATHER SERVICE INDIANAPOLIS IN
1000 PM EST FRI DEC 02 2016

NOTE: "FAIR" INDICATES FEW OR NO CLOUDS BELOW 12,000 FEET WITH NO
SIGNIFICANT WEATHER AND/OR OBSTRUCTIONS TO VISIBILITY.

* - STATION DOES NOT REPORT WEATHER SUCH AS PRECIPITATION OR FOG.

+ - STATION NOT QUALITY CONTROLLED BY THE NATIONAL WEATHER SERVICE.
    USE DATA WITH CAUTION...ESPECIALLY DEWPOINT AND RELATIVE
    HUMIDITY OBSERVATIONS.

INZ001>003-010>013-019-020-030400-
NORTHWEST INDIANA

CITY           SKY/WX    TMP DP  RH WIND       PRES   REMARKS
GARY /AIRPORT/ CLOUDY    39  25  56 W8        30.31S
KNOX *+        CLOUDY    36  23  60 CALM      30.29S
LA PORTE +     CLOUDY    37  35  90 CALM      30.29S
MICHIGAN CITY+ CLOUDY    36  28  75 N7        30.30S
MONTICELLO +   CLOUDY    37  30  77 W6        30.30R
RENSSELAER +   CLOUDY    36  34  93 W6        30.31R
VALPARAISO     CLOUDY    38  26  62 NW9       30.30R

$$

LMZ046-743>745-030400-
SOUTHERN LAKE MICHIGAN

STATION/POSITION TIME  TEMP    WIND        PRES    WAVE
                       AIR SEA DIR/SP/G            HT
                 (UTC) (F)     (DEG/KT/KT) (MB)    (FT)
BURNS HARBOR     0240   40     280/ 10/ 17 1026.1R
MICHIGAN CITY    0240   38     320/  8/ 11   N/A

$$

INZ004-005-014>016-021>024-030400-
NORTH CENTRAL INDIANA

CITY           SKY/WX    TMP DP  RH WIND       PRES   REMARKS
GOSHEN         CLOUDY    36  26  67 W7        30.28R
LOGANSPORT +   CLOUDY    36  32  87 W5        30.31R
PERU/GRISSOM   CLOUDY    36  35  96 NW6       30.27S
ROCHESTER +    CLOUDY    37  34  87 W3        30.29S
SOUTH BEND     CLOUDY    34  28  79 W3        30.29R
WARSAW +       CLOUDY    34  28  80 NW3       30.28S

$$

INZ006>009-017-018-025>027-030400-
NORTHEAST INDIANA

CITY           SKY/WX    TMP DP  RH WIND       PRES   REMARKS
ANGOLA *+      CLOUDY    36  28  75 W3        30.26R
AUBURN +       CLOUDY    36  28  75 W6        30.28R
FORT WAYNE     CLOUDY    37  30  75 NW6       30.28R
HUNTINGTON +   CLOUDY    37  32  84 NW3       30.29R
KENDALLVILLE + CLOUDY    34  28  77 CALM      30.27R

$$

INZ028-029-035-036-043>045-051>053-030400-
WEST CENTRAL INDIANA

CITY           SKY/WX    TMP DP  RH WIND       PRES   REMARKS
CRAWFORDSVL +  CLOUDY    36  34  93 W3        30.31R
GREENCASTLE +  CLOUDY    36  36 100 CALM      30.32R
LAFAYETTE      CLOUDY    36  33  89 W5        30.32R
TERRE HAUTE    CLOUDY    39  31  72 W5        30.34R

$$

INZ030>032-037>040-046>048-054>057-064-065-030400-
CENTRAL INDIANA

CITY           SKY/WX    TMP DP  RH WIND       PRES   REMARKS
CP ATTERBURY + CLOUDY    37  32  81 NW3       30.33R
COLUMBUS       CLOUDY    37  36  93 CALM      30.32
FISHERS *+     CLOUDY    36  34  93 CALM      30.31
FRANKFORT +    CLOUDY    38  35  87 W6        30.32R
GREENWOOD *+   CLOUDY    38  35  87 W3        30.31S
INDIANAPOLIS   CLOUDY    37  34  89 W6        30.31R
-EAGLE CREEK   CLOUDY    38  34  85 W3        30.30S
KOKOMO +       CLOUDY    37  33  85 W8        30.29S
MARION +       CLOUDY    36  32  87 W6        30.29S
MT COMFORT *+  CLOUDY    36  34  93 W5        30.30S
SHELBYVILLE    LGT RAIN  38  35  89 NW3       30.31R FOG
ZIONSVILLE +   CLOUDY    35  32  87 SW5       30.31R WCI  31

$$

INZ033-034-041-042-049-050-058-059-030400-
EAST CENTRAL INDIANA

CITY           SKY/WX    TMP DP  RH WIND       PRES   REMARKS
MUNCIE         CLOUDY    38  31  76 W8        30.28S

$$

INZ060-061-067>069-081>083-085>088-030400-
SOUTHWEST INDIANA

CITY           SKY/WX    TMP DP  RH WIND       PRES   REMARKS
EVANSVILLE     CLEAR     37  30  75 N5        30.36R
HUNTINGBURG *+ CLOUDY    39  30  70 CALM      30.34S
WASHINGTON +   CLOUDY    39  35  85 CALM      30.34S

$$

INZ062-063-066-070>080-084-089>092-030400-
SOUTH CENTRAL AND SOUTHEAST INDIANA

CITY           SKY/WX    TMP DP  RH WIND       PRES   REMARKS
BLOOMINGTON    CLOUDY    39  30  70 NW3       30.32R
MADISON *+     CLOUDY    39  30  70 CALM      30.33S
NORTH VERNON + CLOUDY    39  39 100 CALM      30.32R
SEYMOUR +      CLOUDY    41  32  70 NW3       30.33R

$$





USA.gov is the U.S. government's official web portal to all federal, state and local government web resources and services.